EZY93JR EGCC-ESGG

Flight info

Callsign EZY93JR
Flight time N/A
Altitude 37000
Route POL P17 MEJAC DCT ITSUX DCT TINAC T138 AAL N607 MAKUR
Aircraft A320/M-SDE3FGHIRWY/LB1

Departure

Time 2026-04-30 19:58
Airport Manchester Airport (EGCC)

Arrival

Time N/A
Airport Göteborg Landvetter Airport (ESGG)
Time Latitude Longitude Altitude Speed Heading
2026-04-30 19:24 53.36555 -2.27933 255 ft 0 kts 45°
2026-04-30 19:42 53.36553 -2.27936 255 ft 2 kts 45°
2026-04-30 19:42 53.36536 -2.27968 255 ft 4 kts 52°
2026-04-30 19:43 53.36521 -2.28005 255 ft 4 kts 69°
2026-04-30 19:43 53.36518 -2.28045 255 ft 4 kts 118°
2026-04-30 19:43 53.36524 -2.28060 255 ft 1 kts 135°
2026-04-30 19:47 53.36498 -2.28016 255 ft 9 kts 135°
2026-04-30 19:47 53.36454 -2.27968 255 ft 12 kts 154°
2026-04-30 19:47 53.36388 -2.27944 255 ft 5 kts 194°
2026-04-30 19:47 53.36362 -2.27975 255 ft 4 kts 227°
2026-04-30 19:48 53.36348 -2.28009 255 ft 3 kts 236°
2026-04-30 19:48 53.36338 -2.28031 255 ft 2 kts 230°
2026-04-30 19:48 53.36331 -2.28042 255 ft 1 kts 221°
2026-04-30 19:48 53.36330 -2.28044 255 ft 0 kts 219°
2026-04-30 19:49 53.36329 -2.28044 255 ft 1 kts 218°
2026-04-30 19:49 53.36257 -2.28062 255 ft 12 kts 178°
2026-04-30 19:49 53.36176 -2.28004 255 ft 9 kts 146°
2026-04-30 19:50 53.36133 -2.27945 255 ft 7 kts 138°
2026-04-30 19:50 53.36098 -2.27894 255 ft 6 kts 140°
2026-04-30 19:50 53.36064 -2.27875 255 ft 5 kts 178°
2026-04-30 19:50 53.36039 -2.27894 255 ft 5 kts 215°
2026-04-30 19:51 53.35991 -2.27898 255 ft 10 kts 151°
2026-04-30 19:51 53.35918 -2.27849 255 ft 11 kts 173°
2026-04-30 19:51 53.35838 -2.27861 252 ft 13 kts 187°
2026-04-30 19:51 53.35731 -2.27877 246 ft 21 kts 185°
2026-04-30 19:52 53.35599 -2.27941 239 ft 11 kts 242°
2026-04-30 19:52 53.35564 -2.28027 239 ft 15 kts 228°
2026-04-30 19:52 53.35443 -2.28148 236 ft 20 kts 197°
2026-04-30 19:52 53.35313 -2.28203 234 ft 20 kts 202°
2026-04-30 19:53 53.35212 -2.28345 232 ft 18 kts 231°
2026-04-30 19:53 53.35126 -2.28520 227 ft 19 kts 231°
2026-04-30 19:53 53.35050 -2.28677 229 ft 16 kts 228°
2026-04-30 19:53 53.34972 -2.28814 226 ft 16 kts 225°
2026-04-30 19:54 53.34897 -2.28947 223 ft 16 kts 226°
2026-04-30 19:54 53.34816 -2.29099 217 ft 18 kts 231°
2026-04-30 19:54 53.34731 -2.29265 211 ft 20 kts 226°
2026-04-30 19:54 53.34672 -2.29331 214 ft 0 kts 203°
2026-04-30 19:56 53.34627 -2.29345 216 ft 13 kts 176°
2026-04-30 19:56 53.34553 -2.29286 213 ft 11 kts 133°
2026-04-30 19:57 53.34557 -2.29188 217 ft 10 kts 58°
2026-04-30 19:57 53.34650 -2.28996 217 ft 34 kts 51°
2026-04-30 19:57 53.34955 -2.28362 233 ft 103 kts 51°
2026-04-30 19:57 53.35525 -2.27175 262 ft 155 kts 52°
2026-04-30 19:58 53.36209 -2.25777 940 ft 149 kts 51°
2026-04-30 19:58 53.36863 -2.24440 1568 ft 150 kts 60°
2026-04-30 19:58 53.37536 -2.22974 1851 ft 169 kts 60°
2026-04-30 19:58 53.38300 -2.21286 2087 ft 194 kts 60°
2026-04-30 19:59 53.39157 -2.19392 2427 ft 218 kts 60°
2026-04-30 19:59 53.40130 -2.17250 2802 ft 242 kts 59°
2026-04-30 19:59 53.42335 -2.12469 4009 ft 271 kts 56°
2026-04-30 20:00 53.43665 -2.10170 4840 ft 282 kts 34°
2026-04-30 20:00 53.45556 -2.09216 5681 ft 290 kts
2026-04-30 20:00 53.47559 -2.09418 6519 ft 293 kts 356°
2026-04-30 20:00 53.49607 -2.09663 7311 ft 297 kts 358°
2026-04-30 20:01 53.53790 -2.09745 8912 ft 304 kts
2026-04-30 20:01 53.55922 -2.09696 9735 ft 308 kts
2026-04-30 20:01 53.58067 -2.09370 10471 ft 311 kts 17°
2026-04-30 20:02 53.61658 -2.04910 10954 ft 345 kts 54°
2026-04-30 20:02 53.63195 -2.01721 11518 ft 354 kts 54°
2026-04-30 20:03 53.66328 -1.95223 12892 ft 362 kts 54°
2026-04-30 20:03 53.67932 -1.91918 13589 ft 365 kts 54°
2026-04-30 20:03 53.69554 -1.88581 14249 ft 369 kts 54°
2026-04-30 20:03 53.71172 -1.85254 14870 ft 372 kts 54°
2026-04-30 20:04 53.72823 -1.81851 15515 ft 375 kts 54°
2026-04-30 20:04 53.74488 -1.78419 16109 ft 379 kts 54°
2026-04-30 20:04 53.76171 -1.74950 16710 ft 382 kts 54°
2026-04-30 20:05 53.79573 -1.67917 17905 ft 389 kts 54°
2026-04-30 20:05 53.81271 -1.64392 18479 ft 392 kts 54°
2026-04-30 20:05 53.84745 -1.57164 19496 ft 398 kts 54°
2026-04-30 20:06 53.86497 -1.53515 19992 ft 400 kts 54°
2026-04-30 20:06 53.88258 -1.49846 20503 ft 403 kts 54°
2026-04-30 20:06 53.89434 -1.47391 20827 ft 404 kts 54°
2026-04-30 20:06 53.91804 -1.42437 21449 ft 408 kts 54°
2026-04-30 20:07 53.93601 -1.38680 21926 ft 412 kts 54°
2026-04-30 20:07 53.94821 -1.36123 22242 ft 413 kts 54°
2026-04-30 20:07 53.98464 -1.28455 23145 ft 419 kts 55°
2026-04-30 20:08 54.00298 -1.24581 23579 ft 422 kts 55°
2026-04-30 20:08 54.02145 -1.20677 23982 ft 425 kts 55°
2026-04-30 20:08 54.03985 -1.16790 24353 ft 428 kts 55°
2026-04-30 20:08 54.05856 -1.12830 24730 ft 430 kts 55°
2026-04-30 20:09 54.07734 -1.08853 25090 ft 432 kts 55°
2026-04-30 20:09 54.09627 -1.04840 25437 ft 435 kts 55°
2026-04-30 20:09 54.13422 -0.96761 26181 ft 438 kts 54°
2026-04-30 20:10 54.17224 -0.88641 26876 ft 442 kts 55°
2026-04-30 20:10 54.19151 -0.84507 27236 ft 444 kts 55°
2026-04-30 20:10 54.21080 -0.80360 27570 ft 446 kts 55°
2026-04-30 20:11 54.24939 -0.72054 28235 ft 451 kts 55°
2026-04-30 20:11 54.26900 -0.67833 28550 ft 453 kts 55°
2026-04-30 20:11 54.28877 -0.63570 28871 ft 455 kts 55°
2026-04-30 20:12 54.32809 -0.55067 29502 ft 459 kts 55°
2026-04-30 20:12 54.34800 -0.50738 29781 ft 461 kts 55°
2026-04-30 20:12 54.36797 -0.46392 30062 ft 463 kts 55°
2026-04-30 20:13 54.38772 -0.42085 30348 ft 465 kts 55°
2026-04-30 20:13 54.40776 -0.37707 30588 ft 467 kts 55°
2026-04-30 20:13 54.42792 -0.33292 30824 ft 469 kts 55°
2026-04-30 20:13 54.44809 -0.28870 31062 ft 471 kts 55°
2026-04-30 20:14 54.46830 -0.24437 31337 ft 471 kts 55°
2026-04-30 20:14 54.48847 -0.20010 31669 ft 470 kts 56°
2026-04-30 20:14 54.50858 -0.15595 31997 ft 469 kts 56°
2026-04-30 20:14 54.52868 -0.11167 32287 ft 469 kts 56°
2026-04-30 20:15 54.54877 -0.06729 32593 ft 469 kts 56°
2026-04-30 20:15 54.56858 -0.02338 32905 ft 469 kts 56°
2026-04-30 20:15 54.58855 0.02096 33216 ft 467 kts 56°
2026-04-30 20:15 54.60854 0.06543 33569 ft 466 kts 56°
2026-04-30 20:16 54.62838 0.10957 33909 ft 465 kts 56°
2026-04-30 20:16 54.64791 0.15303 34222 ft 464 kts 56°
2026-04-30 20:16 54.66799 0.19779 34513 ft 464 kts 56°
2026-04-30 20:16 54.68750 0.24139 34788 ft 463 kts 56°
2026-04-30 20:17 54.70720 0.28560 35063 ft 462 kts 56°
2026-04-30 20:17 54.72677 0.32967 35328 ft 462 kts 56°
2026-04-30 20:17 54.74632 0.37374 35585 ft 461 kts 56°
2026-04-30 20:17 54.76584 0.41781 35826 ft 461 kts 55°
2026-04-30 20:18 54.78539 0.46195 36056 ft 461 kts 55°
2026-04-30 20:18 54.80495 0.50615 36269 ft 460 kts 55°
2026-04-30 20:18 54.82437 0.55016 36495 ft 460 kts 55°
2026-04-30 20:18 54.84375 0.59415 36726 ft 459 kts 55°
2026-04-30 20:19 54.86312 0.63821 36936 ft 459 kts 55°
2026-04-30 20:19 54.88219 0.68173 37152 ft 458 kts 55°
2026-04-30 20:19 54.90156 0.72593 37304 ft 458 kts 55°
2026-04-30 20:20 54.94015 0.81414 37331 ft 457 kts 55°
2026-04-30 20:20 54.97858 0.90243 37341 ft 457 kts 55°
2026-04-30 20:21 55.01671 0.99033 37338 ft 457 kts 55°
2026-04-30 20:21 55.05511 1.07907 37348 ft 458 kts 55°
2026-04-30 20:22 55.09340 1.16806 37342 ft 458 kts 55°
2026-04-30 20:22 55.13162 1.25713 37345 ft 458 kts 55°
2026-04-30 20:23 55.16958 1.34577 37358 ft 458 kts 55°
2026-04-30 20:23 55.20770 1.43509 37358 ft 458 kts 55°
2026-04-30 20:24 55.24575 1.52466 37354 ft 458 kts 55°
2026-04-30 20:24 55.28371 1.61459 37358 ft 458 kts 55°
2026-04-30 20:25 55.34029 1.74896 37355 ft 458 kts 54°
2026-04-30 20:26 55.39710 1.88446 37373 ft 458 kts 55°
2026-04-30 20:26 55.45361 2.02015 37380 ft 458 kts 55°
2026-04-30 20:27 55.52855 2.20136 37378 ft 458 kts 55°
2026-04-30 20:28 55.78843 2.83944 37418 ft 457 kts 54°
2026-04-30 20:30 56.09331 3.81095 37443 ft 452 kts 76°
2026-04-30 20:31 56.27405 5.11867 37449 ft 447 kts 70°
2026-04-30 20:32 56.47357 6.17777 37460 ft 445 kts 70°
2026-04-30 20:33 56.58892 6.81775 37466 ft 443 kts 71°
2026-04-30 20:34 56.70059 7.45894 37468 ft 442 kts 71°
2026-04-30 20:35 56.80778 8.09833 37465 ft 441 kts 71°
2026-04-30 20:35 56.91238 8.74467 37459 ft 440 kts 72°
2026-04-30 20:36 56.97975 9.17346 37456 ft 440 kts 72°
2026-04-30 20:36 57.00071 9.30949 37127 ft 440 kts 72°
2026-04-30 20:37 57.00898 9.36343 36868 ft 440 kts 72°
2026-04-30 20:37 57.01726 9.41760 36599 ft 440 kts 72°